星链-5059 (STARLINK-5059 )

导读 | 豆包AI

STARLINK-5059是美国SpaceX公司星链(Starlink)星座项目的卫星,于2022年9月24日成功发射。星链计划旨在通过部署数千颗低轨卫星,为全球偏远、网络基础设施匮乏地区提供高速低延迟宽带互联网服务。该卫星属于星链大规模组网的一部分,助力项目推进全球覆盖目标,目前星链已在全球六十多个国家和地区落地服务,不断拓展卫星互联网应用场景。

Basic Information
目录编号:
53912
目录名称:
STARLINK-5059
国际标识:
2022-119AC
轨道中心:
EARTH
卫星名称:
星链-5059
卫星全名:
星链-5059 (STARLINK-5059 )
卫星状态:
在轨 (已飞行1314 天)
发射日期:
2022-09-24 UTC
国别 :
美国 (US)
星等 :
--
Orbit Information
数据来源 国际轨道数据 AOE轨道数据
星历时间 2026-04-30T10:46:25+0800
15小时前
查看轨道信息
2026-04-29T17:00:00+0800
1天前
查看轨道信息
半长轴 6917.901km 6917.901km
偏心率 0.0001312 0.0001258
轨道倾角 53.217° 53.215°
近地点辐角 90.888° 86.612°
升交点赤经 82.902° 86.226°
平近点角 269.226° 208.683°
近地点 538.856km 538.893km
远地点 540.672km 540.635km
周期 95.438分钟 95.438分钟
每日圈数 15.088334 15.088333
Detailed Information
固有亮度:
5
最大亮度:
2.5
卫星平台:
Starlink v1.5
覆盖范围:
全球
运营商:
太空探索技术公司
运营商所在国:
美国
制造商(研发单位):
太空探索技术公司
制造商所在国:
美国
使用方式:
暂无
Satellite Introduction
星链(Starlink)计划是由太空探索技术公司(SpaceX)提出的一个巨型低轨卫星互联网星座项目,计划在2019年至2024年间在太空搭建由约1.2万颗卫星组成的“星链”网络,其中1584颗将部署在地球上空550千米处的近地轨道,并从2020年开始工作。该卫星仍在工作。
2D Orbit Map
3D Orbit Map
Orbit Altitude Analysis Chart
Orbit Inclination Analysis Chart
Orbit Comprehensive Analysis Chart
View Comprehensive Chart